CET,Max TemperatureF,Mean TemperatureF,Min TemperatureF,Max Dew PointF,MeanDew PointF,Min DewpointF,Max Humidity, Mean Humidity, Min Humidity, Max Sea Level PressureIn, Mean Sea Level PressureIn, Min Sea Level PressureIn, Max VisibilityMiles, Mean VisibilityMiles, Min VisibilityMiles, Max Wind SpeedMPH, Mean Wind SpeedMPH, Max Gust SpeedMPH,PrecipitationIn, CloudCover, Events, WindDirDegrees
2013-2-1,56,44,32,46,41,34,100,88,59,30.48,30.23,29.95,19,3,0,22,5,33,0.02,4,Fog-Rain,216
2013-2-2,49,44,39,48,33,27,94,62,35,30.24,30.05,29.89,19,7,6,29,18,38,0.02,3,Rain,320
2013-2-3,49,43,37,30,27,24,65,52,27,30.42,30.32,30.21,19,8,6,24,15,36,0.00,1,,356
2013-2-4,60,44,29,39,32,25,87,66,35,30.54,30.41,30.36,19,8,6,7,3,14,0.00,1,,195
2013-2-5,61,46,31,41,35,29,100,72,29,30.43,30.27,30.12,19,10,6,17,5,21,0.00,1,,304
2013-2-6,52,46,39,34,28,23,81,52,33,30.15,30.07,30.04,19,7,6,33,16,40,0.00,2,Rain,300
2013-2-7,49,42,35,27,24,21,65,48,25,30.31,30.22,30.12,19,7,6,17,9,,0.00,3,,352
2013-2-8,50,40,31,32,27,24,80,58,25,30.26,30.09,30.01,19,7,6,26,6,39,0.00,4,,1
2013-2-9,51,43,33,32,27,24,75,55,34,30.30,30.21,30.12,19,8,6,13,7,17,0.00,3,,346
2013-2-10,50,39,28,43,32,25,93,76,40,30.33,30.00,29.77,19,8,4,32,8,46,0.00,5,Rain,247
2013-2-11,47,42,37,32,27,22,81,56,32,29.89,29.82,29.77,19,7,6,25,16,29,0.00,2,,281
2013-2-12,52,40,28,32,26,23,86,56,28,30.11,29.99,29.89,19,9,6,17,9,26,0.00,1,,270
2013-2-13,59,46,33,41,36,30,93,67,45,30.24,30.14,30.09,19,7,6,9,3,,0.00,3,,24
2013-2-14,60,46,32,41,37,30,100,73,40,30.34,30.21,30.15,19,14,6,6,3,,0.00,,,59
2013-2-15,61,46,32,39,35,29,100,71,38,30.28,30.16,30.09,19,12,6,6,3,,0.00,1,,346
2013-2-16,56,44,32,41,37,29,100,77,44,30.21,30.08,30.01,12,10,7,7,3,17,0.00,8,,18
2013-2-17,52,42,32,45,39,33,100,86,59,30.06,29.96,29.89,12,5,3,13,4,30,0.01,5,Rain,280
2013-2-18,55,48,42,46,43,36,100,82,47,29.94,29.89,29.83,19,5,2,8,4,20,0.01,5,Rain,172
2013-2-19,52,46,40,48,44,37,94,86,70,29.92,29.85,29.80,12,6,4,18,6,,0.03,5,Rain,134
2013-2-20,56,50,45,48,44,41,100,80,55,29.95,29.92,29.89,19,6,2,12,4,24,0.00,4,Rain,250
2013-2-21,50,47,44,48,43,37,94,81,69,29.96,29.87,29.74,19,7,6,14,9,31,0.04,5,Rain,225
2013-2-22,54,49,42,46,43,39,100,82,53,29.75,29.63,29.50,19,6,3,18,9,31,0.08,5,Rain,232
2013-2-23,42,38,33,41,26,18,93,61,28,30.04,29.77,29.50,19,8,6,28,15,36,0.00,2,,360
2013-2-24,47,38,28,36,24,18,100,62,25,30.17,30.06,30.01,19,8,6,18,5,29,0.00,2,Rain,325
2013-2-25,46,39,32,27,22,18,70,52,25,30.22,30.12,30.09,19,7,6,20,10,33,0.00,2,,6
2013-2-26,47,38,28,28,24,21,75,56,34,30.24,30.11,30.04,19,7,6,13,6,,0.00,3,,356
2013-2-27,43,38,34,32,29,25,81,66,46,30.13,30.03,29.95,19,7,2,12,4,,0.00,5,Rain-Snow,87
2013-2-28,41,38,35,36,31,24,87,71,50,30.01,29.89,29.80,19,7,6,18,10,32,0.03,5,Rain-Snow,24